ZY 3 04

导读 | 豆包AI

ZY 3 04即资源三号04星,是中国于2025年12月16日在太原卫星发射中心,通过长征四号乙运载火箭成功发射的高分辨率立体测图业务卫星。该星配置三线阵立体测绘相机等载荷,可获取高精度影像,将与同系列02、03星组网,缩短重访周期,为测绘生产、自然资源监管、国土空间规划等领域提供可靠数据支撑。

Basic Information
目录编号:
67131
目录名称:
ZY 3 04
国际标识:
2025-300A
轨道中心:
EARTH
卫星名称:
ZY 3 04
卫星全名:
ZY 3 04
卫星状态:
在轨 (已飞行88 天)
发射日期:
2025-12-16 UTC
国别 :
中国 (CN)
星等 :
--
Orbit Information
数据来源 国际轨道数据
星历时间: 2026-03-14T06:04:14+0800
17小时前
查看轨道信息
半长轴: 6880.644km
偏心率: 0.0006019
轨道倾角: 97.479°
近地点辐角 289.880°
升交点赤经 151.509°
平近点角 70.178°
近地点: 498.365km
远地点: 506.649km
周期: 94.668分钟
每日圈数: 15.211051
Detailed Information
使用方式:
暂无
2D Orbit Map
3D Orbit Map
Orbit Altitude Analysis Chart
Orbit Inclination Analysis Chart
Orbit Comprehensive Analysis Chart
View Comprehensive Chart